This is the latest recevied weather packets stored in our database for station/object HG8GL-15. If no packets are shown the sender has not sent any weather packets the latest 1 day(s).
| Time | Temp. | Humidity | Pressure | Rain* | Wind** | Luminosity | Snow |
|---|---|---|---|---|---|---|---|
| 1777801279 | 23.89° C | 26% | 1021.5 hPa | - | - | - | - |
| 1777800372 | 23.89° C | 26% | 1021.6 hPa | - | - | - | - |
| 1777799464 | 23.89° C | 26% | 1021.6 hPa | - | - | - | - |
| 1777798557 | 23.89° C | 26% | 1021.6 hPa | - | - | - | - |
| 1777797649 | 23.89° C | 27% | 1021.6 hPa | - | - | - | - |
| 1777796742 | 24.44° C | 26% | 1021.6 hPa | - | - | - | - |
| 1777795835 | 24.44° C | 26% | 1021.7 hPa | - | - | - | - |
| 1777794928 | 24.44° C | 25% | 1021.7 hPa | - | - | - | - |
| 1777794020 | 23.33° C | 27% | 1021.7 hPa | - | - | - | - |
| 1777793113 | 24.44° C | 25% | 1021.7 hPa | - | - | - | - |
| 1777792206 | 23.89° C | 26% | 1021.6 hPa | - | - | - | - |
| 1777791299 | 23.89° C | 26% | 1021.4 hPa | - | - | - | - |
| 1777790392 | 23.33° C | 27% | 1021.6 hPa | - | - | - | - |
| 1777789485 | 23.33° C | 26% | 1021.5 hPa | - | - | - | - |
| 1777788577 | 23.33° C | 26% | 1021.4 hPa | - | - | - | - |
| 1777787670 | 23.33° C | 26% | 1021.4 hPa | - | - | - | - |
| 1777786763 | 23.89° C | 25% | 1021.4 hPa | - | - | - | - |
| 1777785856 | 24.44° C | 23% | 1021.3 hPa | - | - | - | - |
| 1777784949 | 24.44° C | 22% | 1021.3 hPa | - | - | - | - |
| 1777784041 | 24.44° C | 22% | 1021.3 hPa | - | - | - | - |
| 1777783176 | 24.44° C | 22% | 1021.1 hPa | - | - | - | - |
| 1777783134 | 24.44° C | 22% | 1021.1 hPa | - | - | - | - |
| 1777782227 | 25° C | 22% | 1021.1 hPa | - | - | - | - |
| 1777781319 | 25° C | 22% | 1021 hPa | - | - | - | - |
| 1777780447 | 24.44° C | 22% | 1020.8 hPa | - | - | - | - |
* Rain since midnight (hover to see other rain measurements)
** Current wind speed in m/s (hover to see current wind gust speed)